{"data":{"norad_id":67396,"intl_designator":"2026-004AK","name":"HAWK-13B","alt_names":[],"object_type":"PAYLOAD","status":"ACTIVE","operator":null,"country":"US","launch_date":"2026-01-11","launch_site_code":"AFWTR","launch_vehicle":null,"mission":null,"orbit_class":"UNKNOWN","rcs_meters":null,"size_class":null,"mass_kg":null,"dimensions":null,"purposes":[],"wikipedia_slug":null,"has_3d_model":false,"image_url":null,"decayed_at":null,"tle_current":{"epoch":"2026-05-24T22:35:14.965152Z","epoch_age_seconds":76244,"freshness":"FRESH","line1":"1 67396U 26004AK  26144.94114543  .00004305  00000+0  20936-3 0  9995","line2":"2 67396  97.4522 144.3418 0008406  64.1324 296.0776 15.18915947 20239","mean_motion":15.18915947,"eccentricity":0.0008406,"inclination_deg":97.4522,"raan_deg":144.3418,"arg_perigee_deg":64.1324,"mean_anomaly_deg":296.0776,"bstar":0.00020936,"rev_number":2023,"period_min":94.804455957167,"perigee_km":503.32620436746,"apogee_km":514.90505348722,"semimajor_km":6887.2526289273,"source":"CELESTRAK","updated_at":"2026-05-25T13:38:06.960848Z"}}}